Location: Asheville, NC
(35.6000°N, 82.5500°W)
Time: 16:54:12
(UTC-05:00)

AO-7 - Pass Details

Date: 06 January 2018
Orbit: 1440 x 1458 km, 101.7° (Epoch: 23 January)

Event Time Altitude Azimuth Distance (km) Brightness Sun altitude
Rises 05:11:25 0° 9° (N) 4,570 ? -29.6°
Reaches altitude 10° 05:14:23 10° 2° (N) 3,588 ? -29.0°
Enters shadow 05:19:44 35° 331° (NNW) 2,184 ? -27.9°
